Powrót do katalogu

OPS 4682 DEB

AktywnyPO
NORAD 38397·DEBRIS·🇺🇸 United States

Wystrzelony Apr 3, 1965 z Vandenberg Space Force Base

Loading…

Następne Przeloty (najbliższe 24 godziny)

TLE

ŚwieżeSource: Space-Track

Epoka: Sep 14, 2026, 07:28 UTC

1 38397U 65027DA  26257.31112562  .00000082  00000-0  24632-3 0  9993
2 38397  90.2591  19.6638 0039775  21.9921 338.2897 13.00034996674435

Śledź OPS 4682 DEB w czasie rzeczywistym z AllMySat

Download on the App Store